Location: Saint-Usage
(47.1052°N, 5.2587°E)
Time: 02:16:53
(UTC+01:00)

BlueWalker 3 - Visible Passes

Search period start: 29 November 2022 00:00
Search period end: 09 December 2022 00:00
Orbit: 500 x 519 km, 53.2° (Epoch: 28 November)

Date Brightness Start Highest point End Pass type
(mag) Time Alt. Az. Time Alt. Az. Time Alt. Az.
29 Nov 2.4 17:53:17 10° W 17:57:08 54° NNW 18:00:09 16° NE visible
29 Nov 3.9 19:32:48 10° WNW 19:34:58 25° NW 19:34:58 25° NW visible
30 Nov 2.4 17:34:57 10° W 17:38:48 52° NNW 17:42:29 11° ENE visible
30 Nov 3.4 19:14:27 10° WNW 19:17:19 30° NNW 19:17:19 30° NNW visible
01 Dec 3.0 18:56:07 10° WNW 18:59:40 32° N 18:59:40 32° N visible
02 Dec 2.9 18:37:46 10° WNW 18:41:20 32° N 18:42:00 30° NNE visible
02 Dec 5.2 20:16:41 10° WNW 20:16:49 11° WNW 20:16:49 11° WNW visible
03 Dec 3.0 18:19:25 10° WNW 18:22:58 32° N 18:24:22 25° NE visible
03 Dec 4.7 19:58:18 10° WNW 19:59:11 16° NW 19:59:11 16° NW visible
04 Dec 3.0 18:01:02 10° WNW 18:04:37 33° N 18:06:45 19° NE visible
04 Dec 4.0 19:39:54 10° WNW 19:41:35 24° NW 19:41:35 24° NW visible
05 Dec 2.9 17:42:39 10° WNW 17:46:14 33° N 17:49:11 14° ENE visible
05 Dec 3.2 19:21:31 10° WNW 19:24:01 36° NW 19:24:01 36° NW visible
06 Dec 2.9 17:24:17 10° WNW 17:27:52 33° N 17:31:26 10° ENE visible
06 Dec 2.2 19:03:06 10° WNW 19:06:32 58° NNW 19:06:32 58° NNW visible
07 Dec 1.9 18:44:42 10° WNW 18:48:36 68° NNE 18:49:08 58° ENE visible
07 Dec 5.3 20:23:45 10° WNW 20:23:59 11° W 20:23:59 11° W visible
08 Dec 1.9 18:26:17 10° WNW 18:30:12 71° NNE 18:31:51 32° ESE visible
08 Dec 4.8 20:05:22 10° W 20:06:43 17° W 20:06:43 17° W visible
